RYR843D EGHH-LEMI

Flight info

Callsign RYR843D
Flight time 2h 16m
Altitude 39000
Route SAM Y8 GWC UN859 SOPIL DCT BALAN DCT LMG DCT PIMQO DCT AGN DCT ANETO DCT POSSY DCT XIMPE DCT RIMES N860 VLC L34 ALT
Aircraft B38M/M-SDE1FGHILORVWXY/HB1

Departure

Time 2026-04-26 14:06
Airport Bournemouth Airport (EGHH)

Arrival

Time 2026-04-26 16:22
Airport Region of Murcia International Airport (LEMI)
Time Latitude Longitude Altitude Speed Heading
2026-04-26 13:45 50.77767 -1.83375 48 ft 0 kts 87°
2026-04-26 13:54 50.77767 -1.83376 48 ft 1 kts 87°
2026-04-26 13:55 50.77769 -1.83432 48 ft 3 kts 107°
2026-04-26 13:55 50.77773 -1.83450 48 ft 3 kts 126°
2026-04-26 13:55 50.77790 -1.83467 43 ft 0 kts 177°
2026-04-26 14:00 50.77780 -1.83466 45 ft 5 kts 177°
2026-04-26 14:01 50.77698 -1.83474 47 ft 10 kts 186°
2026-04-26 14:01 50.77622 -1.83486 48 ft 12 kts 198°
2026-04-26 14:01 50.77575 -1.83591 48 ft 14 kts 267°
2026-04-26 14:01 50.77577 -1.83779 48 ft 20 kts 274°
2026-04-26 14:02 50.77604 -1.84000 48 ft 21 kts 283°
2026-04-26 14:02 50.77643 -1.84232 47 ft 23 kts 289°
2026-04-26 14:02 50.77693 -1.84474 48 ft 24 kts 284°
2026-04-26 14:02 50.77724 -1.84726 48 ft 24 kts 283°
2026-04-26 14:03 50.77793 -1.84956 49 ft 23 kts 298°
2026-04-26 14:03 50.77854 -1.85173 47 ft 18 kts 256°
2026-04-26 14:03 50.77821 -1.85369 48 ft 19 kts 255°
2026-04-26 14:03 50.77785 -1.85583 49 ft 22 kts 255°
2026-04-26 14:04 50.77724 -1.85712 48 ft 14 kts 215°
2026-04-26 14:04 50.77733 -1.85788 46 ft 8 kts 343°
2026-04-26 14:04 50.77757 -1.85755 48 ft 5 kts 73°
2026-04-26 14:04 50.77757 -1.85751 48 ft 0 kts 74°
2026-04-26 14:06 50.77768 -1.85687 48 ft 32 kts 74°
2026-04-26 14:06 50.77898 -1.84910 48 ft 112 kts 76°
2026-04-26 14:06 50.78156 -1.83371 105 ft 169 kts 77°
2026-04-26 14:06 50.78482 -1.81516 816 ft 183 kts 75°
2026-04-26 14:07 50.78833 -1.79572 1812 ft 177 kts 78°
2026-04-26 14:07 50.79173 -1.77670 2716 ft 190 kts 76°
2026-04-26 14:07 50.79525 -1.75522 3023 ft 212 kts 77°
2026-04-26 14:07 50.79902 -1.73184 3105 ft 226 kts 77°
2026-04-26 14:08 50.80186 -1.70695 3170 ft 237 kts 91°
2026-04-26 14:08 50.80266 -1.68034 3213 ft 248 kts 76°
2026-04-26 14:08 50.81200 -1.65748 3317 ft 254 kts 46°
2026-04-26 14:08 50.82398 -1.63712 3479 ft 258 kts 54°
2026-04-26 14:09 50.83479 -1.61436 3594 ft 258 kts 57°
2026-04-26 14:09 50.84540 -1.59137 3774 ft 259 kts 56°
2026-04-26 14:09 50.85598 -1.56822 4216 ft 261 kts 56°
2026-04-26 14:09 50.86663 -1.54468 4742 ft 264 kts 56°
2026-04-26 14:10 50.87737 -1.52074 5259 ft 269 kts 55°
2026-04-26 14:10 50.88818 -1.49647 5668 ft 271 kts 56°
2026-04-26 14:10 50.89910 -1.47190 6173 ft 275 kts 56°
2026-04-26 14:10 50.91014 -1.44701 6745 ft 278 kts 56°
2026-04-26 14:11 50.93265 -1.39619 7742 ft 284 kts 55°
2026-04-26 14:11 50.94394 -1.37028 8240 ft 286 kts 60°
2026-04-26 14:11 50.95031 -1.34073 8644 ft 285 kts 86°
2026-04-26 14:12 50.94829 -1.30967 9163 ft 285 kts 106°
2026-04-26 14:12 50.94353 -1.27881 9713 ft 291 kts 105°
2026-04-26 14:12 50.93856 -1.24748 10497 ft 294 kts 105°
2026-04-26 14:12 50.93331 -1.21529 11069 ft 311 kts 106°
2026-04-26 14:13 50.92158 -1.14498 11855 ft 350 kts 106°
2026-04-26 14:13 50.91518 -1.10701 12407 ft 364 kts 106°
2026-04-26 14:13 50.90854 -1.06786 13125 ft 369 kts 106°
2026-04-26 14:14 50.90182 -1.02836 13901 ft 374 kts 107°
2026-04-26 14:14 50.89499 -0.98829 14573 ft 378 kts 107°
2026-04-26 14:14 50.88809 -0.94792 15239 ft 382 kts 107°
2026-04-26 14:14 50.88109 -0.90704 15873 ft 386 kts 107°
2026-04-26 14:15 50.87401 -0.86577 16546 ft 390 kts 107°
2026-04-26 14:15 50.86683 -0.82403 17125 ft 395 kts 107°
2026-04-26 14:15 50.85732 -0.78319 17752 ft 395 kts 122°
2026-04-26 14:15 50.84069 -0.74889 18355 ft 394 kts 140°
2026-04-26 14:16 50.81894 -0.72257 18885 ft 395 kts 148°
2026-04-26 14:16 50.79618 -0.69795 19386 ft 399 kts 149°
2026-04-26 14:16 50.77296 -0.67356 19928 ft 402 kts 149°
2026-04-26 14:16 50.74943 -0.64924 20428 ft 405 kts 149°
2026-04-26 14:17 50.72594 -0.62521 20926 ft 409 kts 150°
2026-04-26 14:17 50.70189 -0.60076 21422 ft 412 kts 150°
2026-04-26 14:17 50.67768 -0.57622 21922 ft 416 kts 150°
2026-04-26 14:17 50.65325 -0.55150 22410 ft 419 kts 150°
2026-04-26 14:18 50.62862 -0.52662 22870 ft 423 kts 150°
2026-04-26 14:18 50.60374 -0.50151 23301 ft 427 kts 150°
2026-04-26 14:18 50.57855 -0.47613 23791 ft 430 kts 150°
2026-04-26 14:18 50.55321 -0.45062 24178 ft 434 kts 150°
2026-04-26 14:19 50.52769 -0.42497 24585 ft 436 kts 150°
2026-04-26 14:19 50.50206 -0.39925 24986 ft 438 kts 150°
2026-04-26 14:19 50.47631 -0.37343 25364 ft 441 kts 150°
2026-04-26 14:19 50.45028 -0.34737 25747 ft 444 kts 150°
2026-04-26 14:20 50.42450 -0.32159 26115 ft 446 kts 150°
2026-04-26 14:20 50.39791 -0.29505 26475 ft 449 kts 150°
2026-04-26 14:20 50.37178 -0.26898 26833 ft 451 kts 150°
2026-04-26 14:20 50.34524 -0.24256 27194 ft 454 kts 150°
2026-04-26 14:21 50.31850 -0.21597 27545 ft 456 kts 150°
2026-04-26 14:21 50.29167 -0.18931 27899 ft 459 kts 150°
2026-04-26 14:21 50.26465 -0.16252 28240 ft 461 kts 150°
2026-04-26 14:21 50.23752 -0.13564 28580 ft 463 kts 151°
2026-04-26 14:22 50.21019 -0.10861 28924 ft 466 kts 151°
2026-04-26 14:22 50.18271 -0.08147 29239 ft 468 kts 151°
2026-04-26 14:22 50.15514 -0.05427 29630 ft 469 kts 151°
2026-04-26 14:22 50.12763 -0.02715 30091 ft 468 kts 151°
2026-04-26 14:23 50.09934 -0.00267 30471 ft 462 kts 162°
2026-04-26 14:23 50.06863 0.01124 30747 ft 460 kts 169°
2026-04-26 14:23 50.03760 0.02409 31033 ft 461 kts 169°
2026-04-26 14:23 50.00702 0.03652 31403 ft 460 kts 169°
2026-04-26 14:24 49.97599 0.04887 31784 ft 459 kts 169°
2026-04-26 14:24 49.94508 0.06105 32124 ft 458 kts 169°
2026-04-26 14:24 49.91418 0.07320 32481 ft 458 kts 169°
2026-04-26 14:24 49.88333 0.08530 32840 ft 457 kts 169°
2026-04-26 14:25 49.85247 0.09738 33179 ft 456 kts 169°
2026-04-26 14:25 49.82171 0.10941 33523 ft 456 kts 169°
2026-04-26 14:25 49.79100 0.12141 33865 ft 455 kts 169°
2026-04-26 14:25 49.76022 0.13341 34189 ft 454 kts 169°
2026-04-26 14:26 49.72959 0.14534 34466 ft 454 kts 169°
2026-04-26 14:26 49.69895 0.15727 34696 ft 454 kts 169°
2026-04-26 14:26 49.66875 0.16940 34958 ft 455 kts 169°
2026-04-26 14:26 49.63817 0.18177 35207 ft 454 kts 169°
2026-04-26 14:27 49.60753 0.19411 35461 ft 454 kts 169°
2026-04-26 14:27 49.57698 0.20639 35705 ft 454 kts 169°
2026-04-26 14:27 49.54643 0.21865 35945 ft 454 kts 169°
2026-04-26 14:27 49.51590 0.23089 36170 ft 453 kts 169°
2026-04-26 14:28 49.48537 0.24311 36381 ft 453 kts 169°
2026-04-26 14:28 49.45473 0.25536 36588 ft 453 kts 169°
2026-04-26 14:28 49.42413 0.26758 36790 ft 453 kts 169°
2026-04-26 14:28 49.39361 0.27975 37003 ft 453 kts 169°
2026-04-26 14:29 49.36310 0.29190 37193 ft 453 kts 169°
2026-04-26 14:29 49.33298 0.30388 37377 ft 453 kts 169°
2026-04-26 14:29 49.30248 0.31647 37560 ft 453 kts 168°
2026-04-26 14:29 49.27209 0.32939 37740 ft 453 kts 168°
2026-04-26 14:30 49.24166 0.34223 37910 ft 453 kts 168°
2026-04-26 14:30 49.21131 0.35501 38065 ft 453 kts 168°
2026-04-26 14:30 49.18087 0.36779 38211 ft 453 kts 168°
2026-04-26 14:30 49.15044 0.38056 38361 ft 453 kts 168°
2026-04-26 14:31 49.12005 0.39329 38491 ft 453 kts 168°
2026-04-26 14:31 49.08961 0.40602 38633 ft 453 kts 168°
2026-04-26 14:31 49.05923 0.41872 38749 ft 453 kts 167°
2026-04-26 14:31 49.02884 0.43140 38864 ft 453 kts 167°
2026-04-26 14:32 48.99846 0.44406 38966 ft 453 kts 167°
2026-04-26 14:32 48.93785 0.46928 39071 ft 455 kts 167°
2026-04-26 14:32 48.90738 0.48193 39189 ft 453 kts 167°
2026-04-26 14:33 48.87692 0.49456 39241 ft 454 kts 167°
2026-04-26 14:33 48.81587 0.51983 39212 ft 454 kts 167°
2026-04-26 14:34 48.75470 0.54415 39217 ft 454 kts 168°
2026-04-26 14:34 48.69349 0.56821 39218 ft 454 kts 168°
2026-04-26 14:35 48.63225 0.59225 39207 ft 454 kts 168°
2026-04-26 14:35 48.57099 0.61624 39215 ft 455 kts 168°
2026-04-26 14:36 48.50976 0.64057 39213 ft 455 kts 167°
2026-04-26 14:36 48.44856 0.66548 39209 ft 455 kts 168°
2026-04-26 14:37 48.38728 0.69030 39200 ft 456 kts 168°
2026-04-26 14:37 48.32630 0.71492 39206 ft 457 kts 168°
2026-04-26 14:38 48.26497 0.73962 39208 ft 456 kts 168°
2026-04-26 14:38 48.20360 0.76383 39191 ft 456 kts 168°
2026-04-26 14:39 48.14215 0.78802 39197 ft 457 kts 168°
2026-04-26 14:39 48.08063 0.81219 39198 ft 457 kts 168°
2026-04-26 14:40 48.01914 0.83629 39196 ft 457 kts 168°
2026-04-26 14:40 47.95761 0.86034 39189 ft 457 kts 167°
2026-04-26 14:41 47.89600 0.88436 39194 ft 457 kts 167°
2026-04-26 14:41 47.83450 0.90828 39193 ft 457 kts 167°
2026-04-26 14:42 47.77299 0.93213 39182 ft 457 kts 167°
2026-04-26 14:42 47.71167 0.95584 39193 ft 458 kts 167°
2026-04-26 14:43 47.64991 0.97966 39190 ft 458 kts 167°
2026-04-26 14:43 47.59862 0.99941 39192 ft 458 kts 167°
2026-04-26 14:44 47.53685 1.02313 39187 ft 459 kts 167°
2026-04-26 14:44 47.46500 1.05065 39184 ft 458 kts 167°
2026-04-26 14:45 47.41277 1.06318 39162 ft 450 kts 185°
2026-04-26 14:45 47.34992 1.06218 39140 ft 453 kts 183°
2026-04-26 14:46 47.28720 1.06107 39196 ft 455 kts 183°
2026-04-26 14:46 47.22383 1.05962 39180 ft 455 kts 183°
2026-04-26 14:47 47.16050 1.05814 39175 ft 455 kts 183°
2026-04-26 14:47 47.09720 1.05666 39182 ft 455 kts 183°
2026-04-26 14:48 47.03385 1.05512 39173 ft 455 kts 184°
2026-04-26 14:48 46.97048 1.05234 39174 ft 455 kts 184°
2026-04-26 14:49 46.90714 1.04966 39170 ft 456 kts 184°
2026-04-26 14:49 46.84417 1.04702 39173 ft 456 kts 184°
2026-04-26 14:50 46.78079 1.04436 39171 ft 456 kts 184°
2026-04-26 14:50 46.71735 1.04171 39171 ft 456 kts 184°
2026-04-26 14:51 46.65395 1.03907 39167 ft 456 kts 184°
2026-04-26 14:51 46.59050 1.03643 39167 ft 456 kts 184°
2026-04-26 14:52 46.52711 1.03384 39163 ft 456 kts 182°
2026-04-26 14:52 46.46362 1.03321 39168 ft 456 kts 182°
2026-04-26 14:53 46.40007 1.03248 39169 ft 456 kts 182°
2026-04-26 14:53 46.33661 1.03172 39164 ft 456 kts 182°
2026-04-26 14:54 46.27311 1.03096 39169 ft 456 kts 182°
2026-04-26 14:54 46.20964 1.03021 39168 ft 456 kts 182°
2026-04-26 14:55 46.14657 1.02947 39164 ft 456 kts 182°
2026-04-26 14:55 46.08299 1.02871 39171 ft 456 kts 182°
2026-04-26 14:56 46.01944 1.02796 39178 ft 456 kts 182°
2026-04-26 14:56 45.95588 1.02721 39173 ft 456 kts 182°
2026-04-26 14:57 45.89243 1.02647 39183 ft 456 kts 182°
2026-04-26 14:57 45.82899 1.02574 39182 ft 456 kts 181°
2026-04-26 14:57 45.79747 1.03022 39171 ft 456 kts 169°
2026-04-26 14:58 45.76669 1.03857 39193 ft 457 kts 171°
2026-04-26 14:58 45.70400 1.05445 39184 ft 457 kts 171°
2026-04-26 14:59 45.64125 1.07054 39158 ft 458 kts 171°
2026-04-26 14:59 45.57860 1.08660 39156 ft 457 kts 171°
2026-04-26 15:00 45.51592 1.10262 39156 ft 457 kts 171°
2026-04-26 15:00 45.45373 1.11849 39160 ft 457 kts 171°
2026-04-26 15:01 45.39102 1.13446 39166 ft 457 kts 171°
2026-04-26 15:01 45.32843 1.15036 39156 ft 457 kts 171°
2026-04-26 15:02 45.26572 1.16625 39153 ft 458 kts 171°
2026-04-26 15:02 45.20286 1.18214 39153 ft 459 kts 171°
2026-04-26 15:03 45.13985 1.18646 39149 ft 452 kts 192°
2026-04-26 15:03 45.07799 1.17175 39128 ft 455 kts 191°
2026-04-26 15:04 45.01557 1.15621 39161 ft 457 kts 191°
2026-04-26 15:04 44.95318 1.14029 39152 ft 455 kts 191°
2026-04-26 15:05 44.89092 1.12438 39154 ft 454 kts 191°
2026-04-26 15:05 44.82876 1.10853 39153 ft 454 kts 191°
2026-04-26 15:06 44.76653 1.09270 39152 ft 454 kts 191°
2026-04-26 15:06 44.70429 1.07690 39159 ft 454 kts 191°
2026-04-26 15:07 44.61099 1.05329 39158 ft 454 kts 191°
2026-04-26 15:07 44.54882 1.03760 39155 ft 454 kts 191°
2026-04-26 15:08 44.48660 1.02192 39163 ft 454 kts 191°
2026-04-26 15:08 44.42440 1.00629 39153 ft 454 kts 191°
2026-04-26 15:09 44.36261 0.99079 39159 ft 453 kts 191°
2026-04-26 15:09 44.32564 0.98153 39156 ft 453 kts 191°
2026-04-26 15:10 44.28371 0.97126 39145 ft 453 kts 191°
2026-04-26 15:10 44.21110 0.95294 39148 ft 453 kts 191°
2026-04-26 15:11 44.14902 0.93748 39141 ft 453 kts 191°
2026-04-26 15:11 44.08700 0.92207 39143 ft 453 kts 191°
2026-04-26 15:12 44.02488 0.90667 39143 ft 453 kts 191°
2026-04-26 15:12 43.96324 0.89142 39146 ft 451 kts 191°
2026-04-26 15:13 43.90133 0.87612 39151 ft 452 kts 192°
2026-04-26 15:13 43.83957 0.85952 39151 ft 452 kts 192°
2026-04-26 15:14 43.77785 0.84300 39146 ft 451 kts 192°
2026-04-26 15:14 43.71621 0.82655 39148 ft 451 kts 192°
2026-04-26 15:15 43.65488 0.81022 39150 ft 451 kts 192°
2026-04-26 15:15 43.59326 0.79385 39150 ft 451 kts 192°
2026-04-26 15:16 43.53166 0.77751 39145 ft 450 kts 192°
2026-04-26 15:16 43.47009 0.76122 39144 ft 450 kts 192°
2026-04-26 15:17 43.41848 0.74759 39141 ft 450 kts 192°
2026-04-26 15:17 43.34708 0.72878 39147 ft 449 kts 192°
2026-04-26 15:18 43.28564 0.71262 39146 ft 449 kts 192°
2026-04-26 15:18 43.22422 0.69650 39155 ft 450 kts 191°
2026-04-26 15:19 43.16320 0.68051 39165 ft 449 kts 191°
2026-04-26 15:19 43.10183 0.66448 39161 ft 448 kts 191°
2026-04-26 15:20 43.04052 0.64848 39166 ft 449 kts 192°
2026-04-26 15:20 42.97905 0.63249 39166 ft 450 kts 192°
2026-04-26 15:21 42.91737 0.61646 39175 ft 451 kts 192°
2026-04-26 15:21 42.85619 0.60060 39172 ft 450 kts 191°
2026-04-26 15:22 42.79453 0.58465 39176 ft 451 kts 191°
2026-04-26 15:22 42.73291 0.56873 39178 ft 451 kts 191°
2026-04-26 15:23 42.67327 0.54486 39182 ft 445 kts 207°
2026-04-26 15:23 42.61680 0.50927 39145 ft 448 kts 206°
2026-04-26 15:24 42.56030 0.47338 39184 ft 448 kts 206°
2026-04-26 15:24 42.50398 0.43743 39157 ft 447 kts 206°
2026-04-26 15:25 42.45724 0.40762 39159 ft 447 kts 206°
2026-04-26 15:25 42.39176 0.36596 39144 ft 447 kts 206°
2026-04-26 15:26 42.33544 0.33021 39136 ft 446 kts 206°
2026-04-26 15:26 42.27924 0.29459 39123 ft 446 kts 206°
2026-04-26 15:27 42.22300 0.25902 39119 ft 446 kts 206°
2026-04-26 15:27 42.16676 0.22354 39106 ft 446 kts 206°
2026-04-26 15:28 42.11057 0.18814 39099 ft 445 kts 206°
2026-04-26 15:28 42.05341 0.15778 39072 ft 445 kts 189°
2026-04-26 15:29 41.99187 0.14733 39059 ft 448 kts 188°
2026-04-26 15:30 41.87807 0.12968 39086 ft 448 kts 187°
2026-04-26 15:30 41.80606 0.11892 39082 ft 448 kts 187°
2026-04-26 15:31 41.71306 0.10506 39078 ft 448 kts 187°
2026-04-26 15:32 41.64108 0.09436 39075 ft 448 kts 187°
2026-04-26 15:32 41.55822 0.08207 39072 ft 448 kts 188°
2026-04-26 15:33 41.49632 0.07292 39065 ft 447 kts 187°
2026-04-26 15:33 41.44480 0.06530 39069 ft 447 kts 187°
2026-04-26 15:34 41.38329 0.05624 39071 ft 447 kts 187°
2026-04-26 15:34 41.32147 0.04713 39070 ft 446 kts 188°
2026-04-26 15:35 41.25981 0.03808 39070 ft 445 kts 188°
2026-04-26 15:35 41.19817 0.02904 39070 ft 445 kts 187°
2026-04-26 15:36 41.13658 0.02004 39072 ft 445 kts 187°
2026-04-26 15:36 41.07491 0.01102 39075 ft 446 kts 188°
2026-04-26 15:37 41.01315 0.00200 39073 ft 446 kts 187°
2026-04-26 15:37 40.95142 -0.00700 39077 ft 446 kts 187°
2026-04-26 15:38 40.88978 -0.01597 39065 ft 446 kts 187°
2026-04-26 15:38 40.82781 -0.02497 39089 ft 450 kts 188°
2026-04-26 15:39 40.76585 -0.03394 39080 ft 450 kts 188°
2026-04-26 15:39 40.71358 -0.04150 39095 ft 451 kts 187°
2026-04-26 15:40 40.64123 -0.05195 39099 ft 450 kts 188°
2026-04-26 15:40 40.57891 -0.06093 39104 ft 450 kts 187°
2026-04-26 15:41 40.54819 -0.06776 39079 ft 447 kts 198°
2026-04-26 15:41 40.51859 -0.08011 39142 ft 445 kts 198°
2026-04-26 15:41 40.45887 -0.10329 39094 ft 448 kts 198°
2026-04-26 15:42 40.39895 -0.12697 39107 ft 451 kts 199°
2026-04-26 15:42 40.33883 -0.15072 39099 ft 451 kts 199°
2026-04-26 15:43 40.27911 -0.17427 39106 ft 451 kts 199°
2026-04-26 15:44 40.18878 -0.20982 39112 ft 453 kts 198°
2026-04-26 15:44 40.09815 -0.24536 39123 ft 453 kts 199°
2026-04-26 15:45 40.00751 -0.28083 39130 ft 454 kts 198°
2026-04-26 15:46 39.91658 -0.31627 39128 ft 455 kts 198°
2026-04-26 15:46 39.86623 -0.33586 39122 ft 454 kts 199°
2026-04-26 15:47 39.76498 -0.37519 39124 ft 455 kts 198°
2026-04-26 15:48 39.70421 -0.39873 39133 ft 456 kts 198°
2026-04-26 15:48 39.64381 -0.42210 39128 ft 456 kts 197°
2026-04-26 15:49 39.58301 -0.44556 39127 ft 455 kts 198°
2026-04-26 15:49 39.52221 -0.46898 39134 ft 456 kts 198°
2026-04-26 15:50 39.46014 -0.48438 39137 ft 456 kts 182°
2026-04-26 15:50 39.39659 -0.48935 39108 ft 457 kts 184°
2026-04-26 15:51 39.33288 -0.49415 39116 ft 460 kts 185°
2026-04-26 15:51 39.26896 -0.49877 39125 ft 459 kts 184°
2026-04-26 15:52 39.20523 -0.50338 39121 ft 460 kts 184°
2026-04-26 15:52 39.14138 -0.50797 39118 ft 459 kts 184°
2026-04-26 15:53 39.07750 -0.51258 39121 ft 460 kts 184°
2026-04-26 15:53 39.01409 -0.51713 39116 ft 459 kts 184°
2026-04-26 15:54 38.95018 -0.52172 39124 ft 460 kts 184°
2026-04-26 15:54 38.88630 -0.52629 39116 ft 459 kts 184°
2026-04-26 15:55 38.82238 -0.53085 39125 ft 460 kts 185°
2026-04-26 15:55 38.75852 -0.53541 39119 ft 459 kts 184°
2026-04-26 15:56 38.69471 -0.53996 39125 ft 460 kts 184°
2026-04-26 15:56 38.63087 -0.54450 39122 ft 459 kts 184°
2026-04-26 15:57 38.56739 -0.54899 39131 ft 460 kts 184°
2026-04-26 15:57 38.53550 -0.55125 38532 ft 460 kts 184°
2026-04-26 15:57 38.50315 -0.55354 37331 ft 469 kts 183°
2026-04-26 15:57 38.48110 -0.55509 36694 ft 471 kts 182°
2026-04-26 15:58 38.43799 -0.55815 35909 ft 464 kts 182°
2026-04-26 15:58 38.40596 -0.56041 35395 ft 457 kts 182°
2026-04-26 15:58 38.37425 -0.56265 34738 ft 455 kts 181°
2026-04-26 15:58 38.34258 -0.56487 33942 ft 456 kts 181°
2026-04-26 15:59 38.31086 -0.56711 33032 ft 458 kts 181°
2026-04-26 15:59 38.27905 -0.56933 32235 ft 456 kts 181°
2026-04-26 15:59 38.24745 -0.56819 31452 ft 455 kts 175°
2026-04-26 15:59 38.21586 -0.56616 30694 ft 455 kts 176°
2026-04-26 16:00 38.18457 -0.56448 29853 ft 456 kts 176°
2026-04-26 16:00 38.15288 -0.56294 28953 ft 455 kts 176°
2026-04-26 16:00 38.12149 -0.56150 28372 ft 446 kts 176°
2026-04-26 16:00 38.09033 -0.56007 27754 ft 453 kts 176°
2026-04-26 16:01 38.05873 -0.55864 27128 ft 456 kts 176°
2026-04-26 16:01 38.02702 -0.55720 26506 ft 455 kts 176°
2026-04-26 16:01 37.99542 -0.55577 25881 ft 452 kts 176°
2026-04-26 16:01 37.96415 -0.55435 25258 ft 448 kts 176°
2026-04-26 16:02 37.93309 -0.55295 24654 ft 445 kts 176°
2026-04-26 16:02 37.90228 -0.55155 24036 ft 441 kts 176°
2026-04-26 16:02 37.87168 -0.55017 23381 ft 438 kts 176°
2026-04-26 16:02 37.85303 -0.54934 22953 ft 435 kts 176°
2026-04-26 16:03 37.83177 -0.54838 22528 ft 433 kts 176°
2026-04-26 16:03 37.80174 -0.54702 21927 ft 431 kts 176°
2026-04-26 16:03 37.77186 -0.54568 21339 ft 427 kts 176°
2026-04-26 16:03 37.74224 -0.54434 20754 ft 424 kts 176°
2026-04-26 16:04 37.71284 -0.54302 20197 ft 421 kts 176°
2026-04-26 16:04 37.68357 -0.54170 19601 ft 421 kts 176°
2026-04-26 16:04 37.65434 -0.54040 19021 ft 419 kts 176°
2026-04-26 16:04 37.62569 -0.53911 18467 ft 416 kts 176°
2026-04-26 16:05 37.60623 -0.53823 18037 ft 414 kts 177°
2026-04-26 16:05 37.56804 -0.53649 17195 ft 408 kts 176°
2026-04-26 16:05 37.54024 -0.53525 16649 ft 403 kts 178°
2026-04-26 16:05 37.51225 -0.53904 15998 ft 403 kts 189°
2026-04-26 16:06 37.48497 -0.54645 15461 ft 398 kts 189°
2026-04-26 16:06 37.45860 -0.55332 15462 ft 378 kts 196°
2026-04-26 16:06 37.43549 -0.56767 15282 ft 367 kts 215°
2026-04-26 16:06 37.41844 -0.59196 14548 ft 379 kts 241°
2026-04-26 16:07 37.41060 -0.62377 13702 ft 387 kts 265°
2026-04-26 16:07 37.41051 -0.65759 13053 ft 386 kts 267°
2026-04-26 16:07 37.40724 -0.69069 12643 ft 377 kts 259°
2026-04-26 16:07 37.40261 -0.72284 12247 ft 369 kts 259°
2026-04-26 16:08 37.39892 -0.75454 11821 ft 364 kts 262°
2026-04-26 16:08 37.39731 -0.77536 11645 ft 358 kts 265°
2026-04-26 16:08 37.39613 -0.81640 11417 ft 343 kts 270°
2026-04-26 16:08 37.39702 -0.84595 11233 ft 333 kts 274°
2026-04-26 16:09 37.39926 -0.87448 10996 ft 324 kts 277°
2026-04-26 16:09 37.40278 -0.90227 10638 ft 321 kts 280°
2026-04-26 16:09 37.40753 -0.92952 10277 ft 318 kts 283°
2026-04-26 16:09 37.41346 -0.95615 9910 ft 314 kts 287°
2026-04-26 16:10 37.42049 -0.98208 9515 ft 311 kts 290°
2026-04-26 16:10 37.42854 -1.00721 9130 ft 309 kts 293°
2026-04-26 16:10 37.43769 -1.03151 8742 ft 306 kts 299°
2026-04-26 16:10 37.45105 -1.05200 8339 ft 304 kts 322°
2026-04-26 16:11 37.46926 -1.06461 7951 ft 296 kts 342°
2026-04-26 16:11 37.48903 -1.06982 7566 ft 284 kts 356°
2026-04-26 16:11 37.50796 -1.07548 7155 ft 280 kts 335°
2026-04-26 16:11 37.52299 -1.09053 6784 ft 276 kts 307°
2026-04-26 16:12 37.53062 -1.11195 6543 ft 264 kts 279°
2026-04-26 16:12 37.53066 -1.13446 6331 ft 251 kts 264°
2026-04-26 16:12 37.52627 -1.17720 6081 ft 246 kts 263°
2026-04-26 16:13 37.52494 -1.19866 6000 ft 246 kts 271°
2026-04-26 16:13 37.52615 -1.22008 5706 ft 246 kts 281°
2026-04-26 16:13 37.52998 -1.24059 5473 ft 241 kts 291°
2026-04-26 16:13 37.53657 -1.25989 5274 ft 238 kts 302°
2026-04-26 16:14 37.54551 -1.27719 5081 ft 234 kts 311°
2026-04-26 16:14 37.55560 -1.29325 4886 ft 233 kts 313°
2026-04-26 16:14 37.57615 -1.32461 4511 ft 231 kts 313°
2026-04-26 16:15 37.58647 -1.34000 4397 ft 229 kts 313°
2026-04-26 16:15 37.59645 -1.35523 4406 ft 219 kts 313°
2026-04-26 16:15 37.60686 -1.36772 4434 ft 194 kts 334°
2026-04-26 16:16 37.63189 -1.36844 4450 ft 181 kts 29°
2026-04-26 16:16 37.64155 -1.35871 4474 ft 177 kts 50°
2026-04-26 16:16 37.64945 -1.34675 4502 ft 178 kts 51°
2026-04-26 16:16 37.65748 -1.33474 4450 ft 180 kts 50°
2026-04-26 16:17 37.66558 -1.32275 4435 ft 179 kts 50°
2026-04-26 16:17 37.67351 -1.31113 4364 ft 166 kts 50°
2026-04-26 16:17 37.68088 -1.30034 4190 ft 159 kts 50°
2026-04-26 16:17 37.68808 -1.28990 4015 ft 157 kts 50°
2026-04-26 16:18 37.69521 -1.27955 3999 ft 157 kts 50°
2026-04-26 16:18 37.70700 -1.26236 3962 ft 157 kts 49°
2026-04-26 16:19 37.72449 -1.23699 3418 ft 177 kts 52°
2026-04-26 16:19 37.73116 -1.22390 2804 ft 177 kts 64°
2026-04-26 16:19 37.74211 -1.20307 1993 ft 164 kts 47°
2026-04-26 16:20 37.75204 -1.19040 1745 ft 142 kts 49°
2026-04-26 16:20 37.76412 -1.17485 1382 ft 154 kts 46°
2026-04-26 16:20 37.77175 -1.16525 1207 ft 159 kts 50°
2026-04-26 16:21 37.77974 -1.15510 1069 ft 162 kts 48°
2026-04-26 16:21 37.78712 -1.14538 853 ft 143 kts 50°
2026-04-26 16:21 37.79376 -1.13680 698 ft 136 kts 48°
2026-04-26 16:21 37.80011 -1.12860 647 ft 120 kts 45°
2026-04-26 16:22 37.80467 -1.12274 650 ft 62 kts 45°
2026-04-26 16:22 37.80763 -1.11893 647 ft 58 kts 45°
2026-04-26 16:22 37.81036 -1.11542 649 ft 52 kts 45°
2026-04-26 16:22 37.81212 -1.11317 650 ft 19 kts 45°
2026-04-26 16:23 37.81293 -1.11334 652 ft 14 kts 314°
2026-04-26 16:23 37.81351 -1.11435 653 ft 15 kts 258°
2026-04-26 16:23 37.81285 -1.11531 655 ft 15 kts 226°
2026-04-26 16:23 37.81209 -1.11628 654 ft 17 kts 225°
2026-04-26 16:24 37.81109 -1.11757 652 ft 25 kts 225°
2026-04-26 16:24 37.80979 -1.11925 649 ft 29 kts 225°
2026-04-26 16:24 37.80837 -1.12107 650 ft 30 kts 226°
2026-04-26 16:24 37.80691 -1.12295 654 ft 30 kts 225°
2026-04-26 16:25 37.80540 -1.12489 651 ft 32 kts 225°
2026-04-26 16:25 37.80405 -1.12663 650 ft 15 kts 226°
2026-04-26 16:25 37.80429 -1.12760 649 ft 14 kts 316°
2026-04-26 16:25 37.80445 -1.12865 649 ft 15 kts 227°
2026-04-26 16:26 37.80369 -1.12962 649 ft 16 kts 232°
2026-04-26 16:26 37.80396 -1.13038 649 ft 10 kts 315°
2026-04-26 16:26 37.80403 -1.13046 649 ft 0 kts 316°